Time,TemperatureF,DewpointF,PressureIn,WindDirection,WindDirectionDegrees,WindSpeedMPH,WindSpeedGustMPH,Humidity,HourlyPrecipIn,Conditions,Clouds,dailyrainin,SoftwareType,DateUTC
2013-02-28 00:04:00,36.1,25.5,29.59,SE,129,0.0,0.0,65,0.00,,---,0.00,VWS V13.01,2013-02-28 05:04:00,
2013-02-28 00:09:00,35.8,25.5,29.59,SE,130,0.0,0.0,66,0.00,,---,0.00,VWS V13.01,2013-02-28 05:09:00,
2013-02-28 00:14:00,35.6,26.5,29.59,SE,129,0.0,3.1,69,0.00,,---,0.00,VWS V13.01,2013-02-28 05:14:00,
2013-02-28 00:19:00,35.6,26.8,29.59,SSW,205,0.0,4.0,70,0.00,,---,0.00,VWS V13.01,2013-02-28 05:19:00,
2013-02-28 00:24:00,35.4,27.0,29.59,SSW,206,0.0,0.0,71,0.00,,---,0.00,VWS V13.01,2013-02-28 05:24:00,
2013-02-28 00:29:00,35.1,27.0,29.59,SSW,205,0.0,0.0,72,0.00,,---,0.00,VWS V13.01,2013-02-28 05:29:00,
2013-02-28 00:34:00,34.5,26.4,29.59,SSW,205,0.0,0.0,72,0.00,,---,0.00,VWS V13.01,2013-02-28 05:34:00,
2013-02-28 00:39:00,34.3,26.3,29.59,SSW,205,0.0,0.0,72,0.00,,---,0.00,VWS V13.01,2013-02-28 05:39:00,
2013-02-28 00:44:00,34.5,26.8,29.59,SSW,205,0.0,0.0,73,0.00,,---,0.00,VWS V13.01,2013-02-28 05:44:00,
2013-02-28 00:49:00,34.3,26.6,29.59,SSW,205,2.2,2.7,73,0.00,,---,0.00,VWS V13.01,2013-02-28 05:49:00,
2013-02-28 00:54:00,34.2,26.8,29.59,SSW,208,3.1,3.1,74,0.00,,---,0.00,VWS V13.01,2013-02-28 05:54:00,
2013-02-28 00:59:00,34.3,26.9,29.59,SSW,209,0.0,3.1,74,0.00,,---,0.00,VWS V13.01,2013-02-28 05:59:00,
2013-02-28 01:04:00,34.5,27.4,29.59,SW,231,0.0,2.7,75,0.00,,---,0.00,VWS V13.01,2013-02-28 06:04:00,
2013-02-28 01:09:00,34.5,27.4,29.59,SW,231,0.0,2.7,75,0.00,,---,0.00,VWS V13.01,2013-02-28 06:09:00,
2013-02-28 01:19:00,34.0,26.9,29.59,SW,231,0.0,0.0,75,0.00,,---,0.00,VWS V13.01,2013-02-28 06:19:00,
2013-02-28 01:29:00,34.3,27.9,29.59,East,91,5.4,5.4,77,0.00,,---,0.00,VWS V13.01,2013-02-28 06:29:00,
2013-02-28 01:34:00,34.9,29.0,29.59,East,89,3.6,6.3,79,0.00,,---,0.00,VWS V13.01,2013-02-28 06:34:00,
2013-02-28 01:39:00,35.4,29.9,29.59,East,89,0.0,3.6,80,0.00,,---,0.00,VWS V13.01,2013-02-28 06:39:00,
2013-02-28 01:44:00,35.6,30.0,29.59,East,89,2.2,3.1,80,0.00,,---,0.00,VWS V13.01,2013-02-28 06:44:00,
2013-02-28 01:54:00,35.4,29.9,29.59,East,89,0.0,0.0,80,0.00,,---,0.00,VWS V13.01,2013-02-28 06:54:00,
2013-02-28 01:59:00,35.1,29.2,29.59,East,89,0.0,2.7,79,0.00,,---,0.00,VWS V13.01,2013-02-28 06:59:00,
2013-02-28 02:09:00,34.7,28.9,29.59,East,89,0.0,0.0,79,0.00,,---,0.00,VWS V13.01,2013-02-28 07:09:00,
2013-02-28 02:14:00,34.7,28.9,29.59,East,89,0.0,0.0,79,0.00,,---,0.00,VWS V13.01,2013-02-28 07:14:00,
2013-02-28 02:19:00,34.3,28.8,29.59,East,89,0.0,0.0,80,0.00,,---,0.00,VWS V13.01,2013-02-28 07:19:00,
2013-02-28 02:24:00,34.3,28.8,29.59,East,89,0.0,0.0,80,0.00,,---,0.00,VWS V13.01,2013-02-28 07:24:00,
2013-02-28 02:29:00,34.5,29.0,29.59,East,89,0.0,0.0,80,0.00,,---,0.00,VWS V13.01,2013-02-28 07:29:00,
2013-02-28 02:34:00,34.5,29.0,29.59,East,89,0.0,0.0,80,0.00,,---,0.00,VWS V13.01,2013-02-28 07:34:00,
2013-02-28 02:44:00,34.3,28.8,29.59,East,89,0.0,0.0,80,0.00,,---,0.00,VWS V13.01,2013-02-28 07:44:00,
2013-02-28 02:49:00,34.2,28.6,29.59,East,89,0.0,0.0,80,0.00,,---,0.00,VWS V13.01,2013-02-28 07:49:00,
2013-02-28 02:54:00,34.0,28.5,29.59,East,89,0.0,0.0,80,0.00,,---,0.00,VWS V13.01,2013-02-28 07:54:00,
2013-02-28 02:59:00,34.3,28.8,29.59,East,89,0.0,0.0,80,0.00,,---,0.00,VWS V13.01,2013-02-28 07:59:00,
2013-02-28 03:04:00,34.3,28.8,29.59,East,89,0.0,0.0,80,0.00,,---,0.00,VWS V13.01,2013-02-28 08:04:00,
2013-02-28 03:09:00,34.5,29.0,29.59,East,89,0.0,0.0,80,0.00,,---,0.00,VWS V13.01,2013-02-28 08:09:00,
2013-02-28 03:14:00,34.7,29.2,29.59,East,89,0.0,0.0,80,0.00,,---,0.00,VWS V13.01,2013-02-28 08:14:00,
2013-02-28 03:19:00,34.9,29.4,29.59,East,89,0.0,0.0,80,0.00,,---,0.00,VWS V13.01,2013-02-28 08:19:00,
2013-02-28 03:24:00,34.9,29.4,29.59,East,89,0.0,0.0,80,0.00,,---,0.00,VWS V13.01,2013-02-28 08:24:00,
2013-02-28 03:29:00,34.9,29.4,29.59,East,89,0.0,0.0,80,0.00,,---,0.00,VWS V13.01,2013-02-28 08:29:00,
2013-02-28 03:34:00,34.9,29.4,29.59,East,89,0.0,0.0,80,0.00,,---,0.00,VWS V13.01,2013-02-28 08:34:00,
2013-02-28 03:39:00,34.9,29.4,29.59,East,89,0.0,0.0,80,0.00,,---,0.00,VWS V13.01,2013-02-28 08:39:00,
2013-02-28 03:44:00,34.5,29.0,29.59,East,89,0.0,0.0,80,0.00,,---,0.00,VWS V13.01,2013-02-28 08:44:00,
2013-02-28 03:49:00,34.5,29.0,29.59,East,89,0.0,0.0,80,0.00,,---,0.00,VWS V13.01,2013-02-28 08:49:00,
2013-02-28 03:54:00,34.5,29.0,29.59,East,89,0.0,0.0,80,0.00,,---,0.00,VWS V13.01,2013-02-28 08:54:00,
2013-02-28 03:59:00,34.5,29.0,29.59,East,89,0.0,0.0,80,0.00,,---,0.00,VWS V13.01,2013-02-28 08:59:00,
2013-02-28 04:04:00,34.5,29.0,29.59,East,89,0.0,0.0,80,0.00,,---,0.00,VWS V13.01,2013-02-28 09:04:00,
2013-02-28 04:09:00,34.9,29.4,29.59,East,89,0.0,0.0,80,0.00,,---,0.00,VWS V13.01,2013-02-28 09:09:00,
2013-02-28 04:14:00,34.9,29.4,29.59,East,89,0.0,0.0,80,0.00,,---,0.00,VWS V13.01,2013-02-28 09:14:00,
2013-02-28 04:19:00,34.9,29.4,29.59,East,89,0.0,0.0,80,0.00,,---,0.00,VWS V13.01,2013-02-28 09:19:00,
2013-02-28 04:24:00,34.9,29.4,29.59,East,89,0.0,0.0,80,0.00,,---,0.00,VWS V13.01,2013-02-28 09:24:00,
2013-02-28 04:29:00,34.7,29.2,29.59,East,89,0.0,0.0,80,0.00,,---,0.00,VWS V13.01,2013-02-28 09:29:00,
2013-02-28 04:34:00,34.9,29.4,29.59,East,89,0.0,0.0,80,0.00,,---,0.00,VWS V13.01,2013-02-28 09:34:00,
2013-02-28 04:39:00,34.9,29.4,29.59,East,89,0.0,0.0,80,0.00,,---,0.00,VWS V13.01,2013-02-28 09:39:00,
2013-02-28 04:44:00,35.1,29.5,29.59,East,89,0.0,0.0,80,0.00,,---,0.00,VWS V13.01,2013-02-28 09:44:00,
2013-02-28 04:49:00,35.1,29.5,29.59,East,89,0.0,0.0,80,0.00,,---,0.00,VWS V13.01,2013-02-28 09:49:00,
2013-02-28 04:54:00,35.2,29.7,29.59,East,89,0.0,0.0,80,0.00,,---,0.00,VWS V13.01,2013-02-28 09:54:00,
2013-02-28 04:59:00,35.4,29.9,29.59,East,89,0.0,0.0,80,0.00,,---,0.00,VWS V13.01,2013-02-28 09:59:00,
2013-02-28 05:09:00,34.9,29.4,29.59,East,89,0.0,0.0,80,0.00,,---,0.00,VWS V13.01,2013-02-28 10:09:00,
2013-02-28 05:14:00,34.9,29.4,29.59,East,89,0.0,0.0,80,0.00,,---,0.00,VWS V13.01,2013-02-28 10:14:00,
2013-02-28 05:19:00,35.1,29.5,29.59,East,89,0.0,0.0,80,0.00,,---,0.00,VWS V13.01,2013-02-28 10:19:00,
2013-02-28 05:24:00,35.1,29.5,29.59,East,89,0.0,0.0,80,0.00,,---,0.00,VWS V13.01,2013-02-28 10:24:00,
2013-02-28 05:29:00,35.2,29.7,29.59,East,89,0.0,0.0,80,0.04,,---,0.04,VWS V13.01,2013-02-28 10:29:00,
2013-02-28 05:34:00,35.2,29.7,29.59,East,89,0.0,0.0,80,0.04,,---,0.04,VWS V13.01,2013-02-28 10:34:00,
2013-02-28 05:39:00,35.1,29.5,29.59,East,89,0.0,0.0,80,0.04,,---,0.04,VWS V13.01,2013-02-28 10:39:00,
2013-02-28 05:49:00,34.9,29.4,29.59,East,89,0.0,0.0,80,0.04,,---,0.04,VWS V13.01,2013-02-28 10:49:00,
2013-02-28 05:54:00,34.9,29.4,29.59,East,89,0.0,0.0,80,0.04,,---,0.04,VWS V13.01,2013-02-28 10:54:00,
2013-02-28 06:04:00,35.2,29.7,29.59,East,89,0.0,0.0,80,0.04,,---,0.04,VWS V13.01,2013-02-28 11:04:00,
2013-02-28 06:14:00,35.1,29.5,29.59,East,89,0.0,0.0,80,0.04,,---,0.04,VWS V13.01,2013-02-28 11:14:00,
2013-02-28 06:19:00,35.1,29.5,29.59,East,89,0.0,0.0,80,0.04,,---,0.04,VWS V13.01,2013-02-28 11:19:00,
2013-02-28 06:24:00,35.2,29.7,29.59,East,89,0.0,0.0,80,0.04,,---,0.04,VWS V13.01,2013-02-28 11:24:00,
2013-02-28 06:29:00,35.4,30.2,29.59,East,89,0.0,0.0,81,0.04,,---,0.04,VWS V13.01,2013-02-28 11:29:00,
2013-02-28 06:39:00,35.6,30.0,29.59,East,89,0.0,0.0,80,0.00,,---,0.04,VWS V13.01,2013-02-28 11:39:00,
2013-02-28 06:49:00,35.4,30.2,29.59,East,89,0.0,0.0,81,0.00,,---,0.04,VWS V13.01,2013-02-28 11:49:00,
2013-02-28 06:54:00,35.4,30.2,29.59,East,89,0.0,0.0,81,0.00,,---,0.04,VWS V13.01,2013-02-28 11:54:00,
2013-02-28 06:59:00,35.4,30.2,29.59,East,89,0.0,0.0,81,0.00,,---,0.04,VWS V13.01,2013-02-28 11:59:00,
2013-02-28 07:04:00,35.4,30.2,29.59,East,89,0.0,0.0,81,0.00,,---,0.04,VWS V13.01,2013-02-28 12:04:00,
2013-02-28 07:09:00,35.6,30.4,29.59,East,89,0.0,0.0,81,0.00,,---,0.04,VWS V13.01,2013-02-28 12:09:00,
2013-02-28 07:14:00,35.8,30.5,29.59,East,89,0.0,0.0,81,0.00,,---,0.04,VWS V13.01,2013-02-28 12:14:00,
2013-02-28 07:19:00,36.1,30.9,29.59,East,89,0.0,0.0,81,0.00,,---,0.04,VWS V13.01,2013-02-28 12:19:00,
2013-02-28 07:24:00,36.1,30.9,29.59,East,89,0.0,0.0,81,0.00,,---,0.04,VWS V13.01,2013-02-28 12:24:00,
2013-02-28 07:29:00,36.3,31.1,29.59,East,89,0.0,0.0,81,0.00,,---,0.04,VWS V13.01,2013-02-28 12:29:00,
2013-02-28 07:34:00,36.3,31.1,29.59,East,89,0.0,0.0,81,0.00,,---,0.04,VWS V13.01,2013-02-28 12:34:00,
2013-02-28 07:39:00,36.5,31.2,29.59,East,89,0.0,0.0,81,0.00,,---,0.04,VWS V13.01,2013-02-28 12:39:00,
2013-02-28 07:44:00,36.7,31.4,29.59,East,89,0.0,0.0,81,0.00,,---,0.04,VWS V13.01,2013-02-28 12:44:00,
2013-02-28 07:49:00,36.7,31.4,29.59,East,89,0.0,0.0,81,0.00,,---,0.04,VWS V13.01,2013-02-28 12:49:00,
2013-02-28 07:54:00,36.5,31.2,29.59,East,89,0.0,0.0,81,0.00,,---,0.04,VWS V13.01,2013-02-28 12:54:00,
2013-02-28 07:59:00,36.7,31.4,29.59,East,89,0.0,0.0,81,0.00,,---,0.04,VWS V13.01,2013-02-28 12:59:00,
2013-02-28 08:04:00,36.9,31.6,29.59,East,89,0.0,0.0,81,0.00,,---,0.04,VWS V13.01,2013-02-28 13:04:00,
2013-02-28 08:14:00,37.6,32.3,29.59,East,89,0.0,0.0,81,0.00,,---,0.04,VWS V13.01,2013-02-28 13:14:00,
2013-02-28 08:19:00,37.8,32.5,29.59,East,89,0.0,0.0,81,0.00,,---,0.04,VWS V13.01,2013-02-28 13:19:00,
2013-02-28 08:24:00,37.9,32.6,29.59,East,89,0.0,0.0,81,0.00,,---,0.04,VWS V13.01,2013-02-28 13:24:00,
2013-02-28 08:29:00,38.3,33.0,29.59,East,89,0.0,0.0,81,0.00,,---,0.04,VWS V13.01,2013-02-28 13:29:00,
2013-02-28 08:34:00,38.3,33.0,29.59,East,89,0.0,0.0,81,0.00,,---,0.04,VWS V13.01,2013-02-28 13:34:00,
2013-02-28 08:39:00,38.5,33.2,29.59,East,89,0.0,0.0,81,0.00,,---,0.04,VWS V13.01,2013-02-28 13:39:00,
2013-02-28 08:44:00,38.7,33.3,29.59,East,89,0.0,0.0,81,0.00,,---,0.04,VWS V13.01,2013-02-28 13:44:00,
2013-02-28 08:49:00,38.8,33.2,29.59,East,89,0.0,0.0,80,0.00,,---,0.04,VWS V13.01,2013-02-28 13:49:00,
2013-02-28 08:54:00,39.2,33.2,29.59,East,89,0.0,0.0,79,0.00,,---,0.04,VWS V13.01,2013-02-28 13:54:00,
2013-02-28 08:59:00,39.6,33.6,29.59,East,89,0.0,0.0,79,0.00,,---,0.04,VWS V13.01,2013-02-28 13:59:00,
2013-02-28 09:04:00,39.9,33.6,29.59,East,89,0.0,0.0,78,0.00,,---,0.04,VWS V13.01,2013-02-28 14:04:00,
2013-02-28 09:09:00,40.3,34.0,29.59,East,89,0.0,0.0,78,0.00,,---,0.04,VWS V13.01,2013-02-28 14:09:00,
2013-02-28 09:14:00,40.1,31.5,29.59,East,89,0.0,0.0,71,0.00,,---,0.04,VWS V13.01,2013-02-28 14:14:00,
2013-02-28 09:19:00,40.1,30.4,29.59,East,89,0.0,0.0,68,0.00,,---,0.04,VWS V13.01,2013-02-28 14:19:00,
2013-02-28 09:24:00,39.9,28.4,29.59,East,89,0.0,0.0,63,0.00,,---,0.04,VWS V13.01,2013-02-28 14:24:00,
2013-02-28 09:29:00,40.3,29.5,29.59,East,89,0.0,0.0,65,0.00,,---,0.04,VWS V13.01,2013-02-28 14:29:00,
2013-02-28 09:34:00,40.3,29.5,29.59,East,89,0.0,0.0,65,0.00,,---,0.04,VWS V13.01,2013-02-28 14:34:00,
2013-02-28 09:39:00,41.0,30.9,29.59,East,89,0.0,0.0,67,0.00,,---,0.04,VWS V13.01,2013-02-28 14:39:00,
2013-02-28 09:44:00,41.7,32.0,29.59,East,89,0.0,0.0,68,0.00,,---,0.04,VWS V13.01,2013-02-28 14:44:00,
2013-02-28 09:49:00,42.1,31.6,29.59,East,89,0.0,0.0,66,0.00,,---,0.04,VWS V13.01,2013-02-28 14:49:00,
2013-02-28 09:54:00,42.3,27.7,29.59,East,89,0.0,0.0,56,0.00,,---,0.04,VWS V13.01,2013-02-28 14:54:00,
2013-02-28 09:59:00,42.4,27.0,29.59,East,89,0.0,0.0,54,0.00,,---,0.04,VWS V13.01,2013-02-28 14:59:00,
2013-02-28 10:04:00,42.8,26.9,29.59,WSW,241,3.1,5.8,53,0.00,,---,0.04,VWS V13.01,2013-02-28 15:04:00,
2013-02-28 10:09:00,43.3,26.9,29.59,SE,145,3.1,4.9,52,0.00,,---,0.04,VWS V13.01,2013-02-28 15:09:00,
2013-02-28 10:14:00,43.5,26.1,29.59,South,186,4.9,4.9,50,0.00,,---,0.04,VWS V13.01,2013-02-28 15:14:00,
2013-02-28 10:19:00,43.9,23.4,29.59,NW,326,0.0,4.9,44,0.00,,---,0.04,VWS V13.01,2013-02-28 15:19:00,
2013-02-28 10:24:00,44.2,23.7,29.59,South,178,7.6,7.6,44,0.00,,---,0.04,VWS V13.01,2013-02-28 15:24:00,
2013-02-28 10:34:00,45.1,23.4,29.59,SE,140,0.0,7.6,42,0.00,,---,0.04,VWS V13.01,2013-02-28 15:34:00,
2013-02-28 10:39:00,45.9,22.9,29.59,South,191,4.0,8.1,40,0.00,,---,0.04,VWS V13.01,2013-02-28 15:39:00,
2013-02-28 10:44:00,46.6,23.0,29.59,SSW,199,10.1,10.1,39,0.00,,---,0.04,VWS V13.01,2013-02-28 15:44:00,
2013-02-28 10:49:00,46.9,22.0,29.59,SE,145,4.9,10.1,37,0.00,,---,0.04,VWS V13.01,2013-02-28 15:49:00,
2013-02-28 10:54:00,46.9,22.0,29.59,South,186,2.2,5.8,37,0.00,,---,0.04,VWS V13.01,2013-02-28 15:54:00,
2013-02-28 10:59:00,47.1,22.2,29.59,SSW,194,8.1,8.7,37,0.00,,---,0.04,VWS V13.01,2013-02-28 15:59:00,
2013-02-28 11:04:00,46.9,21.4,29.59,SSE,162,3.6,8.1,36,0.00,,---,0.04,VWS V13.01,2013-02-28 16:04:00,
2013-02-28 11:09:00,46.9,20.7,29.59,SSW,198,3.6,5.4,35,0.00,,---,0.04,VWS V13.01,2013-02-28 16:09:00,
2013-02-28 11:19:00,46.4,20.2,29.59,SSW,195,3.1,6.7,35,0.00,,---,0.04,VWS V13.01,2013-02-28 16:19:00,
2013-02-28 11:24:00,46.2,20.8,29.59,South,191,5.4,6.3,36,0.00,,---,0.04,VWS V13.01,2013-02-28 16:24:00,
2013-02-28 11:29:00,46.0,20.6,29.59,SE,140,2.7,5.4,36,0.00,,---,0.04,VWS V13.01,2013-02-28 16:29:00,
2013-02-28 11:34:00,46.0,19.9,29.59,SSE,164,3.6,3.6,35,0.00,,---,0.04,VWS V13.01,2013-02-28 16:34:00,
2013-02-28 11:39:00,46.2,20.1,29.59,SW,221,0.0,4.9,35,0.00,,---,0.04,VWS V13.01,2013-02-28 16:39:00,
2013-02-28 11:44:00,46.4,20.9,29.59,SSW,213,0.0,3.1,36,0.00,,---,0.04,VWS V13.01,2013-02-28 16:44:00,
2013-02-28 11:49:00,46.9,21.4,29.59,SSW,200,3.1,3.1,36,0.00,,---,0.04,VWS V13.01,2013-02-28 16:49:00,
2013-02-28 11:54:00,47.5,21.2,29.59,SSE,155,0.0,4.0,35,0.00,,---,0.04,VWS V13.01,2013-02-28 16:54:00,
2013-02-28 11:59:00,47.7,20.7,29.59,SSE,155,0.0,2.7,34,0.00,,---,0.04,VWS V13.01,2013-02-28 16:59:00,
2013-02-28 12:04:00,47.8,17.9,29.59,WNW,284,0.0,0.0,30,0.00,,---,0.04,VWS V13.01,2013-02-28 17:04:00,
2013-02-28 12:09:00,48.0,18.8,29.59,West,275,0.0,2.7,31,0.00,,---,0.04,VWS V13.01,2013-02-28 17:09:00,
2013-02-28 12:14:00,48.0,18.8,29.59,WSW,252,3.6,5.4,31,0.00,,---,0.04,VWS V13.01,2013-02-28 17:14:00,
2013-02-28 12:19:00,48.0,18.8,29.59,WSW,252,2.2,3.6,31,0.00,,---,0.04,VWS V13.01,2013-02-28 17:19:00,
2013-02-28 12:24:00,48.2,19.0,29.59,WSW,249,3.1,3.6,31,0.00,,---,0.04,VWS V13.01,2013-02-28 17:24:00,
2013-02-28 12:29:00,48.0,18.8,29.59,WSW,250,0.0,3.6,31,0.00,,---,0.04,VWS V13.01,2013-02-28 17:29:00,
2013-02-28 12:34:00,48.0,18.8,29.59,WSW,250,0.0,3.6,31,0.00,,---,0.04,VWS V13.01,2013-02-28 17:34:00,
2013-02-28 12:39:00,47.8,18.7,29.59,WSW,250,0.0,3.1,31,0.00,,---,0.04,VWS V13.01,2013-02-28 17:39:00,
2013-02-28 12:44:00,47.8,18.7,29.59,WSW,250,0.0,0.0,31,0.00,,---,0.04,VWS V13.01,2013-02-28 17:44:00,
2013-02-28 12:49:00,48.0,18.8,29.59,WSW,250,0.0,0.0,31,0.00,,---,0.04,VWS V13.01,2013-02-28 17:49:00,
2013-02-28 12:54:00,48.2,19.0,29.59,WSW,250,2.2,3.6,31,0.00,,---,0.04,VWS V13.01,2013-02-28 17:54:00,
2013-02-28 12:59:00,48.2,18.2,29.59,WSW,248,0.0,5.4,30,0.00,,---,0.04,VWS V13.01,2013-02-28 17:59:00,
2013-02-28 13:04:00,48.4,18.4,29.59,WSW,248,0.0,0.0,30,0.00,,---,0.04,VWS V13.01,2013-02-28 18:04:00,
2013-02-28 13:09:00,48.2,17.5,29.59,WSW,247,0.0,4.0,29,0.00,,---,0.04,VWS V13.01,2013-02-28 18:09:00,
2013-02-28 13:14:00,48.0,17.3,29.59,WSW,248,2.7,5.8,29,0.00,,---,0.04,VWS V13.01,2013-02-28 18:14:00,
2013-02-28 13:24:00,47.7,17.0,29.59,SSW,195,4.0,7.6,29,0.00,,---,0.04,VWS V13.01,2013-02-28 18:24:00,
2013-02-28 13:29:00,47.5,16.8,29.59,SSW,195,4.9,6.3,29,0.00,,---,0.04,VWS V13.01,2013-02-28 18:29:00,
2013-02-28 13:34:00,47.5,16.8,29.59,SSW,198,0.0,5.8,29,0.00,,---,0.04,VWS V13.01,2013-02-28 18:34:00,
2013-02-28 13:39:00,47.8,17.1,29.59,SSW,197,0.0,0.0,29,0.00,,---,0.04,VWS V13.01,2013-02-28 18:39:00,
2013-02-28 13:44:00,48.0,17.3,29.59,SSW,198,0.0,4.0,29,0.00,,---,0.04,VWS V13.01,2013-02-28 18:44:00,
2013-02-28 13:49:00,48.2,16.6,29.59,SSW,199,0.0,6.3,28,0.00,,---,0.04,VWS V13.01,2013-02-28 18:49:00,
2013-02-28 13:54:00,48.2,16.6,29.59,SSW,198,2.2,5.4,28,0.00,,---,0.04,VWS V13.01,2013-02-28 18:54:00,
2013-02-28 13:59:00,48.2,16.6,29.59,SSW,198,0.0,4.9,28,0.00,,---,0.04,VWS V13.01,2013-02-28 18:59:00,
2013-02-28 14:04:00,48.2,16.6,29.59,SSW,198,2.2,5.4,28,0.00,,---,0.04,VWS V13.01,2013-02-28 19:04:00,
2013-02-28 14:09:00,48.0,16.5,29.59,SSW,198,0.0,4.0,28,0.00,,---,0.04,VWS V13.01,2013-02-28 19:09:00,
2013-02-28 14:14:00,47.8,16.3,29.59,SSW,198,3.6,4.0,28,0.00,,---,0.04,VWS V13.01,2013-02-28 19:14:00,
2013-02-28 14:19:00,47.8,16.3,29.59,SSW,198,0.0,3.6,28,0.00,,---,0.04,VWS V13.01,2013-02-28 19:19:00,
2013-02-28 14:24:00,47.3,20.4,29.59,NE,38,5.4,8.1,34,0.00,,---,0.04,VWS V13.01,2013-02-28 19:24:00,
2013-02-28 14:29:00,46.2,23.2,29.59,NE,42,5.8,7.6,40,0.00,,---,0.04,VWS V13.01,2013-02-28 19:29:00,
2013-02-28 14:34:00,46.2,23.2,29.59,NNE,27,0.0,5.8,40,0.00,,---,0.04,VWS V13.01,2013-02-28 19:34:00,
2013-02-28 14:39:00,45.9,24.1,29.59,NNE,22,3.6,5.8,42,0.00,,---,0.04,VWS V13.01,2013-02-28 19:39:00,
2013-02-28 14:44:00,45.7,23.9,29.59,NNE,28,5.4,6.3,42,0.00,,---,0.04,VWS V13.01,2013-02-28 19:44:00,
2013-02-28 14:49:00,45.7,23.9,29.59,NNE,30,2.7,5.4,42,0.00,,---,0.04,VWS V13.01,2013-02-28 19:49:00,
2013-02-28 14:54:00,45.9,24.1,29.59,NNE,32,2.7,4.0,42,0.00,,---,0.04,VWS V13.01,2013-02-28 19:54:00,
2013-02-28 14:59:00,45.9,24.1,29.59,NNE,32,2.7,4.0,42,0.00,,---,0.04,VWS V13.01,2013-02-28 19:59:00,
2013-02-28 15:04:00,45.9,24.1,29.59,NNE,32,3.6,4.9,42,0.00,,---,0.04,VWS V13.01,2013-02-28 20:04:00,
2013-02-28 15:09:00,45.5,23.8,29.59,NNE,32,3.6,3.6,42,0.00,,---,0.04,VWS V13.01,2013-02-28 20:09:00,
2013-02-28 15:14:00,45.7,23.9,29.59,NNE,32,4.0,4.0,42,0.00,,---,0.04,VWS V13.01,2013-02-28 20:14:00,
2013-02-28 15:19:00,45.7,23.9,29.59,NNE,32,3.6,4.9,42,0.00,,---,0.04,VWS V13.01,2013-02-28 20:19:00,
2013-02-28 15:24:00,45.5,23.8,29.59,NNE,32,0.0,4.5,42,0.00,,---,0.04,VWS V13.01,2013-02-28 20:24:00,
2013-02-28 15:34:00,45.7,23.9,29.59,NNE,32,0.0,0.0,42,0.00,,---,0.04,VWS V13.01,2013-02-28 20:34:00,
2013-02-28 15:39:00,45.7,23.9,29.59,NNE,32,2.7,2.7,42,0.00,,---,0.04,VWS V13.01,2013-02-28 20:39:00,
2013-02-28 15:44:00,45.7,23.9,29.59,NNE,32,2.2,3.1,42,0.00,,---,0.04,VWS V13.01,2013-02-28 20:44:00,
2013-02-28 15:49:00,45.3,24.2,29.59,NNE,32,0.0,2.7,43,0.00,,---,0.04,VWS V13.01,2013-02-28 20:49:00,
2013-02-28 15:54:00,45.3,24.2,29.59,NNE,32,0.0,0.0,43,0.00,,---,0.04,VWS V13.01,2013-02-28 20:54:00,
2013-02-28 15:59:00,45.5,24.3,29.59,NNE,32,0.0,3.6,43,0.00,,---,0.04,VWS V13.01,2013-02-28 20:59:00,
2013-02-28 16:04:00,45.5,23.8,29.59,NNE,32,2.2,4.0,42,0.00,,---,0.04,VWS V13.01,2013-02-28 21:04:00,
2013-02-28 16:09:00,45.5,23.8,29.59,NNE,32,0.0,3.1,42,0.00,,---,0.04,VWS V13.01,2013-02-28 21:09:00,
2013-02-28 16:14:00,45.3,23.6,29.59,NNE,32,2.7,3.1,42,0.00,,---,0.04,VWS V13.01,2013-02-28 21:14:00,
2013-02-28 16:19:00,45.1,23.4,29.59,NNE,32,0.0,4.0,42,0.00,,---,0.04,VWS V13.01,2013-02-28 21:19:00,
2013-02-28 16:24:00,45.1,23.4,29.59,NNE,32,0.0,0.0,42,0.00,,---,0.04,VWS V13.01,2013-02-28 21:24:00,
2013-02-28 16:29:00,45.0,23.3,29.59,NNE,32,0.0,0.0,42,0.00,,---,0.04,VWS V13.01,2013-02-28 21:29:00,
2013-02-28 16:34:00,44.6,22.9,29.59,NNE,32,0.0,0.0,42,0.00,,---,0.04,VWS V13.01,2013-02-28 21:34:00,
2013-02-28 16:39:00,44.4,23.3,29.59,NNE,32,0.0,0.0,43,0.00,,---,0.04,VWS V13.01,2013-02-28 21:39:00,
2013-02-28 16:44:00,44.1,23.6,29.59,NNE,32,0.0,0.0,44,0.00,,---,0.04,VWS V13.01,2013-02-28 21:44:00,
2013-02-28 16:49:00,43.7,23.8,29.59,NNE,32,0.0,0.0,45,0.00,,---,0.04,VWS V13.01,2013-02-28 21:49:00,
2013-02-28 16:54:00,43.7,23.8,29.59,NNE,32,0.0,0.0,45,0.00,,---,0.04,VWS V13.01,2013-02-28 21:54:00,
2013-02-28 16:59:00,43.7,24.3,29.59,NNE,32,0.0,0.0,46,0.00,,---,0.04,VWS V13.01,2013-02-28 21:59:00,
2013-02-28 17:04:00,43.7,24.8,29.59,NNE,32,0.0,0.0,47,0.00,,---,0.04,VWS V13.01,2013-02-28 22:04:00,
2013-02-28 17:09:00,43.7,25.3,29.59,NNE,32,0.0,0.0,48,0.00,,---,0.04,VWS V13.01,2013-02-28 22:09:00,
2013-02-28 17:14:00,43.7,25.3,29.59,NNE,32,0.0,0.0,48,0.00,,---,0.04,VWS V13.01,2013-02-28 22:14:00,
2013-02-28 17:19:00,43.5,25.1,29.59,NNE,32,0.0,0.0,48,0.00,,---,0.04,VWS V13.01,2013-02-28 22:19:00,
2013-02-28 17:24:00,43.3,25.0,29.59,NNE,32,0.0,0.0,48,0.00,,---,0.04,VWS V13.01,2013-02-28 22:24:00,
2013-02-28 17:29:00,43.3,25.5,29.59,NNE,32,0.0,0.0,49,0.00,,---,0.04,VWS V13.01,2013-02-28 22:29:00,
2013-02-28 17:34:00,43.2,25.3,29.59,NNE,32,0.0,0.0,49,0.00,,---,0.04,VWS V13.01,2013-02-28 22:34:00,
2013-02-28 17:39:00,43.2,25.3,29.59,NNE,32,0.0,0.0,49,0.00,,---,0.04,VWS V13.01,2013-02-28 22:39:00,
2013-02-28 17:44:00,43.0,25.1,29.59,NNE,32,0.0,0.0,49,0.00,,---,0.04,VWS V13.01,2013-02-28 22:44:00,
2013-02-28 17:49:00,43.0,25.6,29.59,NNE,32,0.0,0.0,50,0.00,,---,0.04,VWS V13.01,2013-02-28 22:49:00,
2013-02-28 17:54:00,43.0,25.6,29.59,NNE,32,0.0,0.0,50,0.00,,---,0.04,VWS V13.01,2013-02-28 22:54:00,
2013-02-28 17:59:00,42.8,25.5,29.59,NNE,32,0.0,0.0,50,0.00,,---,0.04,VWS V13.01,2013-02-28 22:59:00,
2013-02-28 18:04:00,42.6,25.8,29.59,NNE,32,0.0,0.0,51,0.00,,---,0.04,VWS V13.01,2013-02-28 23:04:00,
2013-02-28 18:09:00,42.4,25.6,29.59,NNE,32,0.0,0.0,51,0.00,,---,0.04,VWS V13.01,2013-02-28 23:09:00,
2013-02-28 18:14:00,42.3,25.4,29.59,NNE,32,0.0,0.0,51,0.00,,---,0.04,VWS V13.01,2013-02-28 23:14:00,
2013-02-28 18:19:00,42.3,25.4,29.59,NNE,32,0.0,0.0,51,0.00,,---,0.04,VWS V13.01,2013-02-28 23:19:00,
2013-02-28 18:24:00,42.1,25.3,29.59,NNE,32,4.0,4.5,51,0.00,,---,0.04,VWS V13.01,2013-02-28 23:24:00,
2013-02-28 18:29:00,41.9,25.1,29.59,NNE,32,2.2,4.0,51,0.00,,---,0.04,VWS V13.01,2013-02-28 23:29:00,
2013-02-28 18:34:00,41.9,25.1,29.59,NNE,32,2.7,4.5,51,0.00,,---,0.04,VWS V13.01,2013-02-28 23:34:00,
2013-02-28 18:39:00,41.9,25.1,29.59,SSW,205,3.6,5.8,51,0.00,,---,0.04,VWS V13.01,2013-02-28 23:39:00,
2013-02-28 18:44:00,42.1,24.8,29.59,South,180,5.4,5.4,50,0.00,,---,0.04,VWS V13.01,2013-02-28 23:44:00,
2013-02-28 18:49:00,42.3,24.0,29.59,SSW,192,3.6,8.1,48,0.00,,---,0.04,VWS V13.01,2013-02-28 23:49:00,
2013-02-28 18:54:00,42.4,22.6,29.59,SSW,202,5.8,6.3,45,0.00,,---,0.04,VWS V13.01,2013-02-28 23:54:00,
2013-02-28 18:59:00,42.6,21.7,29.59,South,182,3.6,5.8,43,0.00,,---,0.04,VWS V13.01,2013-02-28 23:59:00,
2013-02-28 19:04:00,42.6,20.6,29.59,South,190,5.4,6.3,41,0.00,,---,0.04,VWS V13.01,2013-03-01 00:04:00,
2013-02-28 19:09:00,42.8,20.2,29.59,SSW,207,4.0,7.6,40,0.00,,---,0.04,VWS V13.01,2013-03-01 00:09:00,
2013-02-28 19:14:00,42.8,20.2,29.59,SSW,192,7.2,8.3,40,0.00,,---,0.04,VWS V13.01,2013-03-01 00:14:00,
2013-02-28 19:19:00,42.6,20.0,29.59,SSE,148,3.6,8.3,40,0.00,,---,0.04,VWS V13.01,2013-03-01 00:19:00,
2013-02-28 19:24:00,42.6,20.0,29.59,South,170,5.4,8.1,40,0.00,,---,0.04,VWS V13.01,2013-03-01 00:24:00,
2013-02-28 19:29:00,42.6,20.0,29.59,South,189,7.6,8.7,40,0.00,,---,0.04,VWS V13.01,2013-03-01 00:29:00,
2013-02-28 19:34:00,42.4,20.4,29.59,SW,233,3.1,7.6,41,0.00,,---,0.04,VWS V13.01,2013-03-01 00:34:00,
2013-02-28 19:39:00,42.4,20.4,29.59,SW,233,0.0,4.9,41,0.00,,---,0.04,VWS V13.01,2013-03-01 00:39:00,
2013-02-28 19:44:00,42.4,20.4,29.59,SW,234,0.0,4.0,41,0.00,,---,0.04,VWS V13.01,2013-03-01 00:44:00,
2013-02-28 19:49:00,42.3,20.3,29.59,SW,233,4.0,4.5,41,0.00,,---,0.04,VWS V13.01,2013-03-01 00:49:00,
2013-02-28 19:54:00,42.3,20.3,29.59,SW,234,3.1,4.0,41,0.00,,---,0.04,VWS V13.01,2013-03-01 00:54:00,
2013-02-28 19:59:00,42.3,20.8,29.59,SW,233,0.0,5.4,42,0.00,,---,0.04,VWS V13.01,2013-03-01 00:59:00,
2013-02-28 20:04:00,42.1,20.7,29.59,SW,234,2.2,3.6,42,0.00,,---,0.04,VWS V13.01,2013-03-01 01:04:00,
2013-02-28 20:09:00,42.1,20.7,29.59,SW,233,2.7,4.9,42,0.00,,---,0.04,VWS V13.01,2013-03-01 01:09:00,
2013-02-28 20:19:00,42.1,20.7,29.59,SW,233,3.6,6.3,42,0.00,,---,0.04,VWS V13.01,2013-03-01 01:19:00,
2013-02-28 20:24:00,41.9,20.5,29.59,SW,234,2.7,6.3,42,0.00,,---,0.04,VWS V13.01,2013-03-01 01:24:00,
2013-02-28 20:34:00,41.7,20.3,29.59,SW,216,2.7,6.3,42,0.00,,---,0.04,VWS V13.01,2013-03-01 01:34:00,
2013-02-28 20:39:00,41.7,20.3,29.59,SSW,207,5.8,5.8,42,0.00,,---,0.04,VWS V13.01,2013-03-01 01:39:00,
2013-02-28 20:49:00,41.7,20.3,29.59,South,183,2.7,5.8,42,0.00,,---,0.04,VWS V13.01,2013-03-01 01:49:00,
2013-02-28 20:54:00,41.5,20.2,29.59,South,186,3.6,8.3,42,0.00,,---,0.04,VWS V13.01,2013-03-01 01:54:00,
2013-02-28 20:59:00,41.5,20.2,29.59,South,188,2.7,6.3,42,0.00,,---,0.04,VWS V13.01,2013-03-01 01:59:00,
2013-02-28 21:04:00,41.5,20.7,29.59,South,179,3.1,6.7,43,0.00,,---,0.04,VWS V13.01,2013-03-01 02:04:00,
2013-02-28 21:09:00,41.5,20.7,29.59,South,185,2.7,5.8,43,0.00,,---,0.04,VWS V13.01,2013-03-01 02:09:00,
2013-02-28 21:14:00,41.4,20.6,29.59,SSW,200,4.5,8.3,43,0.00,,---,0.04,VWS V13.01,2013-03-01 02:14:00,
2013-02-28 21:19:00,41.4,20.6,29.59,SSW,192,5.8,6.3,43,0.00,,---,0.04,VWS V13.01,2013-03-01 02:19:00,
2013-02-28 21:24:00,41.4,20.6,29.59,SSW,193,3.6,5.8,43,0.00,,---,0.04,VWS V13.01,2013-03-01 02:24:00,
2013-02-28 21:29:00,41.4,21.1,29.59,South,176,3.6,6.3,44,0.00,,---,0.04,VWS V13.01,2013-03-01 02:29:00,
2013-02-28 21:34:00,41.2,20.9,29.59,SSW,196,3.6,5.8,44,0.00,,---,0.04,VWS V13.01,2013-03-01 02:34:00,
2013-02-28 21:39:00,41.2,20.9,29.59,SSW,194,3.6,5.8,44,0.00,,---,0.04,VWS V13.01,2013-03-01 02:39:00,
2013-02-28 21:44:00,41.2,21.5,29.59,SSW,197,3.6,6.3,45,0.00,,---,0.04,VWS V13.01,2013-03-01 02:44:00,
2013-02-28 21:49:00,41.0,21.8,29.59,SSW,197,4.0,8.3,46,0.00,,---,0.04,VWS V13.01,2013-03-01 02:49:00,
2013-02-28 21:54:00,41.0,21.8,29.59,SSW,210,7.6,7.6,46,0.00,,---,0.04,VWS V13.01,2013-03-01 02:54:00,
2013-02-28 21:59:00,41.0,22.3,29.59,SSW,193,6.3,7.6,47,0.00,,---,0.04,VWS V13.01,2013-03-01 02:59:00,
2013-02-28 22:04:00,41.0,22.3,29.59,South,186,2.7,6.3,47,0.00,,---,0.04,VWS V13.01,2013-03-01 03:04:00,
2013-02-28 22:09:00,41.0,22.3,29.59,WSW,253,2.7,6.3,47,0.00,,---,0.04,VWS V13.01,2013-03-01 03:09:00,
2013-02-28 22:14:00,41.0,22.8,29.59,SSW,192,3.6,8.1,48,0.00,,---,0.04,VWS V13.01,2013-03-01 03:14:00,
2013-02-28 22:19:00,41.0,22.8,29.59,South,173,5.4,6.7,48,0.00,,---,0.04,VWS V13.01,2013-03-01 03:19:00,
2013-02-28 22:24:00,40.6,23.0,29.59,SSW,211,4.9,8.3,49,0.00,,---,0.04,VWS V13.01,2013-03-01 03:24:00,
2013-02-28 22:29:00,40.6,23.0,29.59,SSW,193,6.3,7.6,49,0.00,,---,0.04,VWS V13.01,2013-03-01 03:29:00,
2013-02-28 22:39:00,40.6,23.5,29.59,SSW,201,5.4,5.8,50,0.00,,---,0.04,VWS V13.01,2013-03-01 03:39:00,
2013-02-28 22:44:00,40.6,23.5,29.59,South,179,3.6,6.3,50,0.00,,---,0.04,VWS V13.01,2013-03-01 03:44:00,
2013-02-28 22:49:00,40.5,23.3,29.59,South,182,5.4,5.8,50,0.00,,---,0.04,VWS V13.01,2013-03-01 03:49:00,
2013-02-28 22:54:00,40.5,23.3,29.59,South,191,4.9,5.8,50,0.00,,---,0.04,VWS V13.01,2013-03-01 03:54:00,
2013-02-28 22:59:00,40.5,23.3,29.59,South,179,4.9,5.8,50,0.00,,---,0.00,VWS V13.01,2013-03-01 03:59:00,
2013-02-28 23:04:00,40.5,23.3,29.59,SSE,162,3.6,8.1,50,0.00,,---,0.00,VWS V13.01,2013-03-01 04:04:00,
2013-02-28 23:09:00,40.5,23.3,29.59,SSW,200,3.6,5.8,50,0.00,,---,0.00,VWS V13.01,2013-03-01 04:09:00,
2013-02-28 23:14:00,40.3,23.1,29.59,SSW,205,8.1,8.1,50,0.00,,---,0.00,VWS V13.01,2013-03-01 04:14:00,
2013-02-28 23:19:00,40.3,23.1,29.59,SSW,213,5.8,8.7,50,0.00,,---,0.00,VWS V13.01,2013-03-01 04:19:00,
2013-02-28 23:24:00,40.1,23.0,29.59,SSW,194,6.3,6.3,50,0.00,,---,0.00,VWS V13.01,2013-03-01 04:24:00,
2013-02-28 23:29:00,39.9,22.8,29.59,SSW,195,4.0,8.7,50,0.00,,---,0.00,VWS V13.01,2013-03-01 04:29:00,
2013-02-28 23:34:00,39.9,22.8,29.59,South,179,3.1,8.1,50,0.00,,---,0.00,VWS V13.01,2013-03-01 04:34:00,
2013-02-28 23:39:00,39.7,22.6,29.59,SSE,166,4.9,8.3,50,0.00,,---,0.00,VWS V13.01,2013-03-01 04:39:00,
2013-02-28 23:44:00,39.6,22.5,29.59,South,191,5.4,10.5,50,0.00,,---,0.00,VWS V13.01,2013-03-01 04:44:00,
2013-02-28 23:49:00,39.6,22.5,29.59,South,169,3.1,7.6,50,0.00,,---,0.00,VWS V13.01,2013-03-01 04:49:00,
2013-02-28 23:54:00,39.6,22.5,29.59,SSW,201,5.8,8.7,50,0.00,,---,0.00,VWS V13.01,2013-03-01 04:54:00,
2013-02-28 23:59:00,39.4,22.3,29.59,South,190,6.3,10.1,50,0.00,,---,0.00,VWS V13.01,2013-03-01 04:59:00,